This is the latest recevied weather packets stored in our database for station/object KU9TRY. If no packets are shown the sender has not sent any weather packets the latest 10 day(s).
| Time | Temp. | Humidity | Pressure | Rain* | Wind** | Luminosity | Snow |
|---|---|---|---|---|---|---|---|
| 1778381551 | 13.33° C | 93% | 1013.3 hPa | 0 mm | - | 0 W/m² | - |
| 1778381248 | 13.89° C | 93% | 1013.4 hPa | 0 mm | - | 0 W/m² | - |
| 1778380945 | 13.89° C | 93% | 1013.2 hPa | 0 mm | - | 0 W/m² | - |
| 1778380640 | 13.89° C | 92% | 1013.4 hPa | 0 mm | - | 0 W/m² | - |
| 1778380337 | 13.89° C | 90% | 1013.4 hPa | 0 mm | - | 0 W/m² | - |
| 1778380034 | 14.44° C | 91% | 1013.3 hPa | 0 mm | - | 0 W/m² | - |
| 1778379729 | 14.44° C | 90% | 1013.1 hPa | 0 mm | - | 0 W/m² | - |
| 1778379429 | 14.44° C | 89% | 1013.1 hPa | 0 mm | - | 0 W/m² | - |
| 1778379126 | 15° C | 87% | 1013.1 hPa | 0 mm | - | 0 W/m² | - |
| 1778378821 | 15° C | 87% | 1013 hPa | 0 mm | - | 0 W/m² | - |
| 1778378516 | 15.56° C | 84% | 1012.8 hPa | 0 mm | - | 0 W/m² | - |
| 1778378212 | 15.56° C | 84% | 1012.8 hPa | 0 mm | - | 0 W/m² | - |
| 1778377910 | 15.56° C | 83% | 1012.6 hPa | 0 mm | - | 0 W/m² | - |
| 1778377610 | 15.56° C | 83% | 1012.6 hPa | 0 mm | - | 0 W/m² | - |
| 1778377308 | 15.56° C | 82% | 1012.8 hPa | 0 mm | - | 0 W/m² | - |
| 1778377003 | 15.56° C | 84% | 1012.5 hPa | 0 mm | - | 0 W/m² | - |
| 1778376699 | 16.11° C | 82% | 1012.5 hPa | 0 mm | - | 0 W/m² | - |
| 1778376398 | 16.11° C | 81% | 1012.4 hPa | 0 mm | - | 0 W/m² | - |
| 1778376095 | 16.67° C | 79% | 1012.3 hPa | 0 mm | - | 0 W/m² | - |
| 1778375795 | 16.67° C | 78% | 1012.1 hPa | 0 mm | - | 0 W/m² | - |
| 1778375491 | 17.22° C | 77% | 1012.2 hPa | 0 mm | - | 0 W/m² | - |
| 1778375187 | 17.22° C | 76% | 1011.9 hPa | 0 mm | - | 0 W/m² | - |
| 1778374884 | 17.22° C | 76% | 1011.9 hPa | 0 mm | - | 0 W/m² | - |
| 1778374579 | 17.78° C | 76% | 1012.1 hPa | 0 mm | - | 0 W/m² | - |
| 1778374277 | 17.78° C | 73% | 1011.9 hPa | 0 mm | - | 0 W/m² | - |
* Rain latest hour (hover to see other rain measurements)
** Current wind speed in m/s (hover to see current wind gust speed)